Weather History for KLNS - November, 2013

Change the Weather History Date:

Sunday, November 3, 2013

  Actual Average (KRDG) Record (KRDG)
Temperature  
Mean Temperature 42 °F 48 °F  
Max Temperature 51 °F 59 °F 79 °F (2003)
Min Temperature 33 °F 38 °F 25 °F (1980)
Degree Days  
Heating Degree Days 23 17  
Month to date heating degree days 49  
Since 1 July heating degree days 487  
Cooling Degree Days 0 0  
Month to date cooling degree days 0  
Year to date cooling degree days 896  
Moisture  
Dew Point 30 °F    
Average Humidity 58    
Maximum Humidity 82    
Minimum Humidity 33    
Precipitation  
Precipitation 0.00 in 0.11 in 1.72 in (1992)
Month to date precipitation 0.33  
Year to date precipitation 36.85  
Sea Level Pressure  
Sea Level Pressure 30.15 in    
Wind  
Wind Speed 9 mph (NNW)    
Max Wind Speed 17 mph    
Max Gust Speed 28 mph    
Visibility 10 miles    
Events      
T = Trace of Precipitation, MM = Missing Value Source: NWS Daily Summary

Daily Weather History Graph

Daily Weather History Graph

Search for Another Location

Airport or City:

Trip Planner

Search our weather history database for the weather conditions in past years. The results will help you decide how hot, cold, wet, or windy it might be!

Date:

Astronomy

Nov. 03, 2013 Rise Set
Actual Time 6:36 AM EST 4:59 PM EST
Civil Twilight 6:08 AM EST 5:28 PM EST
Nautical Twilight 5:36 AM EST 6:00 PM EST
Astronomical Twilight 5:04 AM EST 6:31 PM EST
Moon 6:38 AM EST (11/3) 5:13 PM EST (11/3)
Length of Visible Light 11h 19m
Length of Day
10h 22m
New Moon, 0% of the Moon is Illuminated
Nov 3
New Moon
Nov 10
First Quarter
Nov 17
Full
Nov 25
Last Quarter
Dec 2
New

Hourly Weather History & Observations

Time (EST) Temp. Windchill Dew Point Humidity Pressure Visibility Wind Dir Wind Speed Gust Speed Precip Events Conditions
12:53 AM 45.0 °F 41.2 °F 39.0 °F 80% 29.86 in 10.0 mi West 6.9 mph - N/A   Scattered Clouds
1:53 AM 44.1 °F 41.5 °F 39.0 °F 82% 29.88 in 10.0 mi West 4.6 mph - N/A   Mostly Cloudy
1:43 AM 46.4 °F 43.5 °F 41.0 °F 81% 29.89 in 10.0 mi West 5.8 mph - N/A   Overcast
1:53 AM 46.9 °F - 41.0 °F 80% 29.89 in 10.0 mi West 5.8 mph - N/A   Overcast
2:19 AM 46.4 °F 42.9 °F 41.0 °F 81% 29.90 in 10.0 mi WNW 6.9 mph - N/A   Overcast
2:53 AM 48.0 °F - 41.0 °F 77% 29.91 in 10.0 mi NW 8.1 mph - N/A   Overcast
3:53 AM 46.9 °F - 37.9 °F 71% 29.95 in 10.0 mi North 16.1 mph 21.9 mph N/A   Overcast
4:53 AM 46.0 °F 40.6 °F 36.0 °F 68% 29.99 in 10.0 mi North 11.5 mph - N/A   Overcast
5:53 AM 45.0 °F 40.6 °F 35.1 °F 68% 30.03 in 10.0 mi NNW 8.1 mph - N/A   Overcast
6:53 AM 44.1 °F 39.0 °F 32.0 °F 63% 30.06 in 10.0 mi NNW 9.2 mph 19.6 mph N/A   Overcast
7:53 AM 43.0 °F 36.0 °F 32.0 °F 65% 30.11 in 10.0 mi NNW 13.8 mph 20.7 mph N/A   Scattered Clouds
8:53 AM 45.0 °F 37.9 °F 30.0 °F 56% 30.16 in 10.0 mi NNW 16.1 mph 27.6 mph N/A   Scattered Clouds
9:53 AM 46.9 °F - 30.0 °F 52% 30.19 in 10.0 mi North 16.1 mph 23.0 mph N/A   Clear
10:53 AM 48.9 °F - 30.0 °F 48% 30.19 in 10.0 mi North 13.8 mph - N/A   Clear
11:53 AM 50.0 °F - 28.9 °F 44% 30.21 in 10.0 mi North 11.5 mph - N/A   Clear
12:53 PM 50.0 °F - 28.0 °F 43% 30.20 in 10.0 mi North 12.7 mph 18.4 mph N/A   Clear
1:53 PM 51.1 °F - 25.0 °F 36% 30.21 in 10.0 mi NNW 12.7 mph 25.3 mph N/A   Clear
2:53 PM 50.0 °F - 21.9 °F 33% 30.22 in 10.0 mi NNW 12.7 mph 21.9 mph N/A   Clear
3:53 PM 48.0 °F - 21.0 °F 34% 30.26 in 10.0 mi North 11.5 mph - N/A   Clear
4:53 PM 45.0 °F 40.1 °F 21.9 °F 40% 30.28 in 10.0 mi North 9.2 mph - N/A   Clear
5:53 PM 42.1 °F 37.1 °F 21.0 °F 43% 30.32 in 10.0 mi North 8.1 mph - N/A   Clear
6:53 PM 41.0 °F 35.2 °F 21.9 °F 47% 30.35 in 10.0 mi NNE 9.2 mph - N/A   Clear
7:53 PM 39.0 °F 29.9 °F 21.0 °F 49% 30.38 in 10.0 mi NNE 17.3 mph 21.9 mph N/A   Clear
8:53 PM 36.0 °F 29.0 °F 21.0 °F 55% 30.42 in 10.0 mi NNE 9.2 mph - N/A   Clear
9:53 PM 33.1 °F 26.9 °F 21.0 °F 61% 30.46 in 10.0 mi North 6.9 mph - N/A   Clear
10:53 PM 34.0 °F 31.0 °F 19.9 °F 56% 30.48 in 10.0 mi North 3.5 mph - N/A   Clear